Tracking 28794 objects as of 19-Apr-2024
HD Live streaming from Space Station
objects crossing your sky now

CZ-3C DEB

Track CZ-3C DEB now!


NORAD ID: 40818
Int'l Code: 2010-057AK
Perigee: 696.5 km
Apogee: 35,657.9 km
Inclination: 20.8 °
Period: 638.0 minutes
Semi major axis: 24548 km
RCS: Unknown
Launch date: October 31, 2010
Source: People's Republic of China (PRC)
Launch site: Xichang Space Center, China (XSC)

Note: This is SATELLITE DEBRIS
Your satellite tracking list
Your tracking list is empty




NASA's NSSDC Master Catalog

Two Line Element Set (TLE):
1 40818U 10057AK  24106.49862674 -.00000138  00000-0  28383-2 0  9992
2 40818  20.7878  11.4030 7120968  25.6480 356.8151  2.25721977 75072
Source of the keplerian elements: AFSPC